Location: *
(43.4667°N, 11.6833°E)
Time: 10:19:50
(UTC+00:00)

SL-8 R/B - Pass Details

Date: 19 July 2019
Orbit: 656 x 668 km, 48.4° (Epoch: 25 August)

Event Time Altitude Azimuth Distance (km) Brightness Sun altitude
Rises 21:08:35 0° 294° (WNW) 2,981 8.0 -19.1°
Reaches altitude 10° 21:10:56 10° 294° (WNW) 2,068 7.0 -19.3°
Maximum altitude 21:15:43 83° 207° (SSW) 665 3.6 -19.7°
Enters shadow 21:17:13 44° 124° (SE) 909 4.0 -19.9°
